Location: Big Tree
(37.5099°N, 119.6021°W)
Time: 13:05:48
(UTC+00:00)

BlueWalker 3 - Pass Details

Date: 05 August 2024
Orbit: 475 x 487 km, 53.2° (Epoch: 15 September)

Event Time Altitude Azimuth Distance (km) Brightness Sun altitude
Exits shadow 12:08:47 12° 274° (W) 1,589 4.0 -11.1°
Maximum altitude 12:11:41 25° 328° (NNW) 1,029 3.5 -10.6°
Drops below altitude 10° 12:14:54 10° 26° (NNE) 1,690 5.5 -10.0°
Sets 12:17:22 0° 40° (NE) 2,575 7.1 -9.6°
